When you browse on this site, cookies collect data to enhance your experience and personalize the content and advertising you see.
Visit our Privacy Policy to learn more. By continuing to use the site, you agree to this use of cookies and data.
  • en Suisse
  • Liste des pays
  • À 7 jours
  • Température de l'eau
  • Carte satellitaire
  • Carte météo
  • Widgets météo
  • user-avatar
    Se connecter

    Météo par heure à Brisbane

    Ce jour, 21 Mars, Jeudi

    Heure Température Précipitation Vent Pression Humidité
    00:00 +25°C° 0.4 mm 3 m/s 757 mmHg 89%
    01:00 +25°C° 0.4 mm 3 m/s 757 mmHg 89%
    02:00 +24°C° 0.3 mm 3 m/s 757 mmHg 89%
    03:00 +24°C° 0.3 mm 3 m/s 757 mmHg 90%
    04:00 +24°C° 0 mm 3 m/s 758 mmHg 88%
    05:00 +24°C° 0 mm 2 m/s 758 mmHg 88%
    06:00 +24°C° 0 mm 2 m/s 758 mmHg 87%
    07:00 +24°C° 0 mm 2 m/s 758 mmHg 87%
    08:00 +26°C° 0 mm 2 m/s 758 mmHg 79%
    09:00 +28°C° 0 mm 2 m/s 758 mmHg 71%
    10:00 +32°C° 0 mm 1 m/s 759 mmHg 59%
    11:00 +32°C° 0 mm 1 m/s 759 mmHg 56%
    12:00 +34°C° 0 mm 2 m/s 758 mmHg 54%
    13:00 +34°C° 0 mm 3 m/s 758 mmHg 51%
    14:00 +33°C° 0.4 mm 3 m/s 758 mmHg 57%
    15:00 +32°C° 0.4 mm 4 m/s 758 mmHg 63%
    16:00 +30°C° 0 mm 4 m/s 757 mmHg 69%
    17:00 +29°C° 1.3 mm 4 m/s 758 mmHg 74%
    18:00 +27°C° 1.3 mm 4 m/s 758 mmHg 80%
    19:00 +26°C° 1.3 mm 4 m/s 759 mmHg 86%
    20:00 +26°C° 0.8 mm 3 m/s 759 mmHg 86%
    21:00 +25°C° 0.8 mm 3 m/s 759 mmHg 87%
    22:00 +25°C° 0.8 mm 2 m/s 760 mmHg 88%
    23:00 +25°C° 0.7 mm 2 m/s 760 mmHg 89%

    Demain, 22 Mars, Vendredi

    Heure Température Précipitation Vent Pression Humidité
    00:00 +25°C° 0.7 mm 2 m/s 760 mmHg 89%
    01:00 +25°C° 0.7 mm 2 m/s 760 mmHg 90%
    02:00 +24°C° 0.3 mm 1 m/s 760 mmHg 91%
    03:00 +24°C° 0.3 mm 1 m/s 760 mmHg 91%
    04:00 +24°C° 0.3 mm 1 m/s 760 mmHg 92%
    05:00 +24°C° 0 mm 1 m/s 760 mmHg 92%
    06:00 +24°C° 0 mm 1 m/s 760 mmHg 91%
    07:00 +24°C° 0 mm 2 m/s 761 mmHg 91%
    08:00 +26°C° 0 mm 2 m/s 761 mmHg 81%
    09:00 +28°C° 0 mm 1 m/s 761 mmHg 71%
    10:00 +31°C° 0 mm 1 m/s 761 mmHg 62%
    11:00 +31°C° 0 mm 2 m/s 760 mmHg 61%
    12:00 +31°C° 0 mm 2 m/s 760 mmHg 61%
    13:00 +31°C° 0 mm 3 m/s 759 mmHg 61%
    14:00 +31°C° 0.2 mm 3 m/s 759 mmHg 63%
    15:00 +30°C° 0.2 mm 3 m/s 759 mmHg 65%
    16:00 +30°C° 0.2 mm 3 m/s 758 mmHg 67%
    17:00 +28°C° 0.2 mm 3 m/s 759 mmHg 73%
    18:00 +27°C° 0.2 mm 3 m/s 759 mmHg 79%
    19:00 +26°C° 0.2 mm 2 m/s 759 mmHg 84%
    20:00 +26°C° 0 mm 2 m/s 760 mmHg 84%
    21:00 +26°C° 0 mm 2 m/s 760 mmHg 84%
    22:00 +26°C° 0 mm 2 m/s 760 mmHg 84%
    23:00 +26°C° 0.1 mm 2 m/s 760 mmHg 85%

    Après-demain, 23 Mars, Samedi

    Heure Température Précipitation Vent Pression Humidité
    00:00 +25°C° 0.1 mm 2 m/s 760 mmHg 87%
    01:00 +25°C° 0.1 mm 1 m/s 760 mmHg 89%
    02:00 +25°C° 0 mm 1 m/s 760 mmHg 90%
    03:00 +25°C° 0 mm 1 m/s 759 mmHg 90%
    04:00 +25°C° 0 mm 1 m/s 759 mmHg 90%
    05:00 +25°C° 0 mm 1 m/s 760 mmHg 89%
    06:00 +25°C° 0 mm 1 m/s 760 mmHg 88%
    07:00 +25°C° 0 mm 1 m/s 761 mmHg 87%
    08:00 +27°C° 0 mm 1 m/s 761 mmHg 77%
    09:00 +29°C° 0 mm 1 m/s 761 mmHg 67%
    10:00 +31°C° 0 mm 1 m/s 761 mmHg 57%
    11:00 +32°C° 0 mm 2 m/s 760 mmHg 52%
    12:00 +35°C° 0 mm 2 m/s 759 mmHg 47%
    13:00 +36°C° 0 mm 2 m/s 759 mmHg 42%
    14:00 +35°C° 0 mm 3 m/s 758 mmHg 46%
    15:00 +34°C° 0 mm 3 m/s 758 mmHg 50%
    16:00 +33°C° 0 mm 4 m/s 758 mmHg 54%
    17:00 +30°C° 0 mm 4 m/s 758 mmHg 62%
    18:00 +29°C° 0 mm 3 m/s 758 mmHg 70%
    19:00 +27°C° 0 mm 3 m/s 759 mmHg 78%
    20:00 +26°C° 0 mm 3 m/s 759 mmHg 80%
    21:00 +26°C° 0 mm 3 m/s 760 mmHg 82%
    22:00 +26°C° 0 mm 3 m/s 760 mmHg 84%
    23:00 +25°C° 0 mm 2 m/s 760 mmHg 85%

    24 Mars, Dimanche

    Heure Température Précipitation Vent Pression Humidité
    00:00 +25°C° 0 mm 2 m/s 760 mmHg 87%
    01:00 +24°C° 0 mm 2 m/s 760 mmHg 88%
    02:00 +24°C° 0 mm 2 m/s 760 mmHg 89%
    03:00 +24°C° 0 mm 1 m/s 759 mmHg 89%
    04:00 +24°C° 0 mm 1 m/s 759 mmHg 90%
    05:00 +24°C° 0 mm 1 m/s 760 mmHg 88%
    06:00 +24°C° 0 mm 1 m/s 760 mmHg 86%
    07:00 +24°C° 0 mm 1 m/s 761 mmHg 84%
    08:00 +27°C° 0 mm 1 m/s 761 mmHg 73%
    09:00 +29°C° 0 mm 1 m/s 760 mmHg 63%
    10:00 +32°C° 0 mm 1 m/s 760 mmHg 52%
    11:00 +34°C° 0 mm 2 m/s 760 mmHg 49%
    12:00 +35°C° 0 mm 2 m/s 759 mmHg 45%
    13:00 +36°C° 0 mm 3 m/s 759 mmHg 41%
    14:00 +35°C° 0 mm 3 m/s 759 mmHg 45%
    15:00 +35°C° 0 mm 4 m/s 758 mmHg 49%
    16:00 +34°C° 0 mm 4 m/s 758 mmHg 53%
    17:00 +32°C° 0 mm 4 m/s 758 mmHg 61%
    18:00 +29°C° 0 mm 4 m/s 759 mmHg 69%
    19:00 +27°C° 0 mm 4 m/s 759 mmHg 77%
    20:00 +27°C° 0 mm 3 m/s 760 mmHg 80%
    21:00 +26°C° 0 mm 3 m/s 760 mmHg 82%
    22:00 +26°C° 0 mm 3 m/s 761 mmHg 84%
    23:00 +25°C° 0 mm 2 m/s 761 mmHg 85%

    25 Mars, Lundi

    Heure Température Précipitation Vent Pression Humidité
    00:00 +25°C° 0 mm 2 m/s 760 mmHg 87%
    01:00 +25°C° 0 mm 1 m/s 760 mmHg 88%
    02:00 +24°C° 0 mm 1 m/s 760 mmHg 88%
    03:00 +24°C° 0 mm 1 m/s 760 mmHg 89%
    04:00 +24°C° 0 mm 1 m/s 760 mmHg 89%
    05:00 +24°C° 0 mm 1 m/s 760 mmHg 87%
    06:00 +25°C° 0 mm 1 m/s 760 mmHg 85%
    07:00 +25°C° 0 mm 1 m/s 761 mmHg 83%
    08:00 +27°C° 0 mm 2 m/s 761 mmHg 74%
    09:00 +29°C° 0 mm 2 m/s 761 mmHg 64%
    10:00 +31°C° 0 mm 2 m/s 761 mmHg 55%
    11:00 +33°C° 0 mm 3 m/s 760 mmHg 52%
    12:00 +34°C° 0 mm 3 m/s 759 mmHg 49%
    13:00 +35°C° 0 mm 3 m/s 759 mmHg 46%
    14:00 +34°C° 0 mm 4 m/s 758 mmHg 50%
    15:00 +33°C° 0 mm 4 m/s 758 mmHg 54%
    16:00 +33°C° 0 mm 4 m/s 758 mmHg 58%
    17:00 +30°C° 0 mm 4 m/s 758 mmHg 65%
    18:00 +29°C° 0 mm 4 m/s 759 mmHg 72%
    19:00 +27°C° 0 mm 3 m/s 759 mmHg 80%
    20:00 +27°C° 0 mm 3 m/s 759 mmHg 82%
    21:00 +26°C° 0 mm 3 m/s 760 mmHg 84%
    22:00 +26°C° 0 mm 3 m/s 760 mmHg 86%
    23:00 +26°C° 0 mm 3 m/s 760 mmHg 87%

    26 Mars, Mardi

    Heure Température Précipitation Vent Pression Humidité
    00:00 +25°C° 0 mm 2 m/s 760 mmHg 87%
    01:00 +25°C° 0 mm 2 m/s 759 mmHg 88%
    02:00 +25°C° 0 mm 2 m/s 759 mmHg 88%
    03:00 +25°C° 0 mm 2 m/s 759 mmHg 89%
    04:00 +25°C° 0 mm 2 m/s 759 mmHg 90%
    05:00 +25°C° 0 mm 2 m/s 759 mmHg 89%
    06:00 +25°C° 0 mm 2 m/s 760 mmHg 87%
    07:00 +25°C° 0 mm 2 m/s 760 mmHg 86%
    08:00 +27°C° 0 mm 2 m/s 760 mmHg 75%
    09:00 +29°C° 0 mm 2 m/s 761 mmHg 64%
    10:00 +31°C° 0 mm 2 m/s 761 mmHg 53%
    11:00 +34°C° 0 mm 2 m/s 760 mmHg 49%
    12:00 +35°C° 0 mm 2 m/s 759 mmHg 44%
    13:00 +36°C° 0 mm 2 m/s 758 mmHg 40%
    14:00 +35°C° 0 mm 3 m/s 758 mmHg 44%
    15:00 +34°C° 0 mm 3 m/s 758 mmHg 49%
    16:00 +33°C° 0 mm 4 m/s 758 mmHg 54%
    17:00 +30°C° 0.3 mm 3 m/s 759 mmHg 63%
    18:00 +28°C° 0.3 mm 3 m/s 759 mmHg 72%
    19:00 +27°C° 0.3 mm 2 m/s 760 mmHg 81%
    20:00 +26°C° 0.3 mm 2 m/s 760 mmHg 82%
    21:00 +26°C° 0.3 mm 3 m/s 761 mmHg 83%
    22:00 +26°C° 0.3 mm 3 m/s 761 mmHg 84%
    23:00 +26°C° 0.6 mm 2 m/s 761 mmHg 85%
    Voir plus